[[{"header":{"parameterUnit":"m.s-1","parameterCategory":1,"la1":30.2991,"la2":30.254,"lo1":-89.0895,"lo2":-89.0444,"dy":0.0017,"dx":0.0017,"nx":28,"ny":28,"refTime":"2023-07-31T21:00:00:Z","depth":0,"parameterNumber":2,"parameterNumberName":"U-component_of_WINDS"},"data":[0,0,0,0,0,0,0,0,0,0,0,0,0,0,0,0,0,0,0,0,0,0,0,0,0,0,0,0,0,0,0,0,0,0,0,0,0,0,0,0,0,0,0,0,0,0,0,0,0,0,0,0,0,0,0,0,0,0,-0.4133,-0.4133,0,-0.4083,-0.4083,-0.4082,-0.4048,-0.4048,-0.4048,-0.4047,-0.3992,-0.3991,-0.3989,0,0,0,0,0,0,0,0,0,0,0,0,0,-0.4197,-0.4196,-0.4134,-0.4133,-0.4132,-0.4083,-0.4083,-0.4082,-0.4048,-0.4048,-0.4048,-0.4047,-0.3992,-0.3991,-0.3989,0,0,0,0,0,0,0,0,0,0,0,0,0,-0.416,-0.4196,-0.4134,-0.411,-0.4107,-0.4084,-0.4083,-0.4082,-0.4048,-0.4048,-0.4048,-0.4047,-0.3993,-0.3991,-0.3989,-0.3984,0,0,-0.3983,-0.3982,0,0,0,0,0,0,0,0,-0.4162,-0.4158,-0.4114,-0.4111,-0.4108,-0.4072,-0.4085,-0.4049,-0.4048,-0.407,-0.4047,-0.4047,-0.4018,-0.4014,-0.4006,-0.3982,-0.3979,-0.3983,-0.3982,-0.3981,-0.3981,0,0,0,0,0,0,0,-0.4165,-0.416,-0.4113,-0.4113,-0.411,-0.41,-0.4095,-0.4078,-0.4047,-0.4068,-0.4066,-0.4061,-0.4017,-0.4007,-0.4004,-0.3978,-0.3983,-0.3981,-0.398,-0.3979,-0.3948,-0.3948,0,0,0,0,0,0,-0.4172,-0.4162,-0.4115,-0.4112,-0.4135,-0.4099,-0.4093,-0.4084,-0.4047,-0.4041,-0.4061,-0.4059,-0.4011,-0.4006,-0.4002,-0.3993,-0.3981,-0.3979,-0.3978,-0.3948,-0.3948,-0.3948,0,0,0,0,0,0,-0.4173,-0.4168,-0.4117,-0.4136,-0.4129,-0.4099,-0.4088,-0.4083,-0.4074,-0.4041,-0.4035,-0.4057,-0.401,-0.4005,-0.3989,-0.3991,-0.3978,-0.3977,-0.3947,-0.3948,-0.3948,-0.3977,0,0,0,0,0,0,-0.4175,-0.4169,-0.4167,-0.4137,-0.4128,-0.4106,-0.4089,-0.4082,-0.4071,-0.4068,-0.4036,-0.4031,-0.401,-0.3992,-0.3987,-0.3988,-0.3975,-0.3947,-0.3947,-0.3948,-0.3976,-0.3978,-0.3981,0,0,0,0,0,-0.4178,-0.4176,-0.4167,-0.4162,-0.4126,-0.4106,-0.4101,-0.4079,-0.4071,-0.4069,-0.4048,-0.4032,-0.3992,-0.3991,-0.3985,-0.3986,-0.3946,-0.3947,-0.3948,-0.3975,-0.3978,-0.3981,0,0,0,0,0,0,-0.4206,-0.4172,-0.4161,-0.415,-0.4132,-0.4101,-0.4097,-0.4083,-0.4065,-0.4063,-0.4034,-0.4027,-0.4014,-0.3998,-0.3998,-0.3979,-0.3967,-0.3967,-0.399,-0.3992,-0.3995,-0.3998,-0.3974,0,0,0,0,0,-0.4211,-0.42,-0.417,-0.4163,-0.4154,-0.4128,-0.4118,-0.4102,-0.4081,-0.4073,-0.4051,-0.403,-0.4013,-0.4002,-0.3984,-0.3974,-0.3966,-0.3971,-0.3974,-0.3976,-0.3975,-0.3968,-0.397,-0.395,-0.395,-0.395,0,0,-0.4221,-0.4201,-0.4195,-0.4168,-0.4152,-0.4139,-0.4121,-0.4108,-0.4098,-0.407,-0.4055,-0.4038,-0.4013,-0.4,-0.3993,-0.3986,-0.398,-0.3977,-0.3979,-0.3977,-0.3969,-0.3971,-0.3973,-0.3951,-0.3951,-0.3951,0,0,-0.4233,-0.4217,-0.421,-0.4195,-0.4171,-0.4153,-0.4152,-0.4123,-0.4112,-0.4096,-0.4075,-0.4062,-0.4033,-0.4016,-0.4004,-0.4011,-0.3994,-0.4006,-0.4018,-0.4012,-0.4013,-0.4014,-0.4016,-0.4017,-0.4006,-0.4006,-0.4006,0,-0.4248,-0.4229,-0.4208,-0.4196,-0.4185,-0.4161,-0.4153,-0.4139,-0.411,-0.4102,-0.4095,-0.4059,-0.404,-0.4023,-0.4025,-0.4016,-0.4012,-0.4008,-0.4015,-0.4016,-0.4017,-0.4018,-0.4019,-0.4007,-0.4007,-0.4007,-0.4007,0,-0.4249,-0.4236,-0.4233,-0.4208,-0.4196,-0.4186,-0.4162,-0.4152,-0.4138,-0.4121,-0.4105,-0.4083,-0.406,-0.4055,-0.404,-0.4036,-0.4032,-0.4021,-0.4008,-0.4021,-0.4021,-0.4022,-0.4009,-0.4009,-0.4008,-0.4008,0,0,-0.4275,-0.424,-0.4239,-0.4227,-0.42,-0.4189,-0.4178,-0.4158,-0.415,-0.4131,-0.412,-0.4098,-0.4087,-0.4073,-0.4056,-0.4051,-0.4057,-0.404,-0.4039,-0.4043,-0.405,-0.4058,-0.4059,-0.4047,-0.4047,-0.4047,-0.4052,0,-0.4282,-0.4263,-0.4244,-0.4231,-0.4218,-0.4196,-0.4187,-0.4169,-0.4153,-0.4139,-0.4121,-0.4105,-0.4093,-0.4085,-0.4078,-0.4058,-0.4058,-0.4058,-0.4036,-0.4035,-0.4042,-0.4059,-0.4067,-0.4073,-0.4052,-0.4052,-0.4052,0,-0.4287,-0.4271,-0.4258,-0.4232,-0.4226,-0.4218,-0.4198,-0.4186,-0.4165,-0.4154,-0.4139,-0.4122,-0.4108,-0.4099,-0.4079,-0.408,-0.407,-0.4059,-0.4058,-0.4054,-0.4043,-0.4055,-0.4074,-0.4075,-0.4053,-0.4053,-0.4053,0,-0.4307,-0.4282,-0.4271,-0.4262,-0.4232,-0.4227,-0.4214,-0.4193,-0.4182,-0.4164,-0.4156,-0.4137,-0.4126,-0.4111,-0.4089,-0.4084,-0.4071,-0.406,-0.406,-0.4061,-0.4057,-0.4058,-0.4074,-0.4053,-0.4053,-0.4053,-0.4053,0,-0.4316,-0.4308,-0.4279,-0.4272,-0.4263,-0.4241,-0.4231,-0.4216,-0.4198,-0.4187,-0.4167,-0.4156,-0.4128,-0.4114,-0.4097,-0.4083,-0.4078,-0.4068,-0.4063,-0.4069,-0.407,-0.4061,-0.4059,-0.4053,-0.4053,-0.4053,-0.4053,0,-0.4336,-0.4316,-0.4302,-0.4276,-0.427,-0.4264,-0.4241,-0.4232,-0.4216,-0.4202,-0.4198,-0.4172,-0.4154,-0.4131,-0.4106,-0.4094,-0.4082,-0.4075,-0.409,-0.4087,-0.4088,-0.4088,-0.4098,-0.4098,-0.4079,-0.4079,-0.4079,0,-0.4342,-0.4336,-0.431,-0.4302,-0.429,-0.4277,-0.4266,-0.4244,-0.4234,-0.421,-0.4204,-0.4186,-0.417,-0.4143,-0.4121,-0.4102,-0.4094,-0.4099,-0.409,-0.4097,-0.4092,-0.4093,-0.4091,-0.41,-0.41,-0.4101,-0.4101,0,-0.4355,-0.4346,-0.4333,-0.4316,-0.4304,-0.4289,-0.4274,-0.4268,-0.4242,-0.4231,-0.4214,-0.4202,-0.4178,-0.4159,-0.4137,-0.4122,-0.4107,-0.4104,-0.4103,-0.4108,-0.4117,-0.4111,-0.4094,-0.4103,-0.4103,-0.4103,-0.4103,-0.4103,-0.4368,-0.4361,-0.4342,-0.4328,-0.4314,-0.43,-0.4291,-0.4275,-0.4261,-0.424,-0.4228,-0.4211,-0.419,-0.4159,-0.4146,-0.4131,-0.4125,-0.4124,-0.4123,-0.4123,-0.4125,-0.412,-0.4127,-0.4127,-0.4127,-0.4127,-0.4127,0,-0.4379,-0.4366,-0.4353,-0.4333,-0.4321,-0.431,-0.4292,-0.4283,-0.4269,-0.4252,-0.4237,-0.4217,-0.4199,-0.4177,-0.4157,-0.415,-0.4143,-0.4146,-0.4145,-0.4142,-0.4132,-0.4134,-0.4152,-0.4152,-0.4152,-0.4152,-0.4152,-0.4152,-0.4384,-0.4372,-0.4361,-0.4343,-0.4329,-0.4314,-0.4305,-0.4291,-0.4278,-0.4257,-0.4243,-0.4229,-0.4209,-0.4188,-0.4171,-0.4165,-0.4158,-0.4163,-0.4155,-0.4145,-0.4143,-0.414,-0.4143,-0.4162,-0.4162,-0.4166,-0.4166,-0.4166]},{"header":{"parameterUnit":"m.s-1","parameterCategory":1,"la1":30.2991,"la2":30.254,"lo1":-89.0895,"lo2":-89.0444,"dy":0.0017,"dx":0.0017,"nx":28,"ny":28,"refTime":"2023-07-31T21:00:00:Z","depth":0,"parameterNumber":3,"parameterNumberName":"V-component_of_WINDS"},"data":[0,0,0,0,0,0,0,0,0,0,0,0,0,0,0,0,0,0,0,0,0,0,0,0,0,0,0,0,0,0,0,0,0,0,0,0,0,0,0,0,0,0,0,0,0,0,0,0,0,0,0,0,0,0,0,0,0,0,-0.1205,-0.1206,0,-0.1246,-0.1246,-0.1246,-0.129,-0.1291,-0.1292,-0.1292,-0.1335,-0.1336,-0.1336,0,0,0,0,0,0,0,0,0,0,0,0,0,-0.1168,-0.1168,-0.1205,-0.1206,-0.1206,-0.1245,-0.1246,-0.1247,-0.129,-0.1291,-0.1292,-0.1293,-0.1335,-0.1336,-0.1336,0,0,0,0,0,0,0,0,0,0,0,0,0,-0.1194,-0.1168,-0.1205,-0.1233,-0.1236,-0.1245,-0.1246,-0.1247,-0.129,-0.1291,-0.1292,-0.1293,-0.1335,-0.1336,-0.1336,-0.1323,0,0,-0.1339,-0.1339,0,0,0,0,0,0,0,0,-0.1192,-0.1195,-0.1228,-0.1231,-0.1234,-0.1264,-0.1249,-0.1272,-0.129,-0.127,-0.1292,-0.1293,-0.1311,-0.1314,-0.1319,-0.1325,-0.1327,-0.1339,-0.134,-0.134,-0.134,0,0,0,0,0,0,0,-0.119,-0.1194,-0.1221,-0.1229,-0.1232,-0.1244,-0.1248,-0.1253,-0.1284,-0.1271,-0.1275,-0.1279,-0.1313,-0.1318,-0.1321,-0.1327,-0.1339,-0.134,-0.134,-0.1341,-0.1324,-0.1323,0,0,0,0,0,0,-0.1184,-0.1192,-0.122,-0.1223,-0.1215,-0.1243,-0.1249,-0.1253,-0.1285,-0.129,-0.1278,-0.1281,-0.1316,-0.132,-0.1322,-0.1309,-0.134,-0.1341,-0.1341,-0.1324,-0.1323,-0.1322,0,0,0,0,0,0,-0.1183,-0.1186,-0.1218,-0.1208,-0.1213,-0.1243,-0.1248,-0.1254,-0.1259,-0.1289,-0.1295,-0.1278,-0.1317,-0.1321,-0.1322,-0.1311,-0.1341,-0.1342,-0.1326,-0.1324,-0.1323,-0.1281,0,0,0,0,0,0,-0.1182,-0.1186,-0.1181,-0.1208,-0.1213,-0.1217,-0.1247,-0.1254,-0.1261,-0.1265,-0.1291,-0.1296,-0.1318,-0.1321,-0.1323,-0.1312,-0.1343,-0.1327,-0.1325,-0.1323,-0.1283,-0.1278,-0.1273,0,0,0,0,0,-0.118,-0.1168,-0.118,-0.1183,-0.1208,-0.1216,-0.122,-0.1245,-0.1259,-0.1255,-0.1274,-0.1295,-0.1311,-0.132,-0.1323,-0.1313,-0.1328,-0.1325,-0.1323,-0.1286,-0.1279,-0.1274,0,0,0,0,0,0,-0.1139,-0.1172,-0.1186,-0.1181,-0.1196,-0.1224,-0.1219,-0.1237,-0.1249,-0.1252,-0.1283,-0.1289,-0.1286,-0.13,-0.1309,-0.1301,-0.1323,-0.1321,-0.1293,-0.1287,-0.1282,-0.1279,-0.1343,0,0,0,0,0,-0.1129,-0.1133,-0.1162,-0.1155,-0.1161,-0.1188,-0.1193,-0.1211,-0.1228,-0.1234,-0.1254,-0.1269,-0.1278,-0.1283,-0.1292,-0.1285,-0.1292,-0.1279,-0.1274,-0.127,-0.1269,-0.1266,-0.1261,-0.1315,-0.1315,-0.1315,0,0,-0.111,-0.1128,-0.1129,-0.1147,-0.116,-0.1164,-0.1194,-0.1197,-0.12,-0.1235,-0.1237,-0.1252,-0.1271,-0.1268,-0.1267,-0.1279,-0.1255,-0.1267,-0.1264,-0.1265,-0.1263,-0.1258,-0.1253,-0.1314,-0.1314,-0.1314,0,0,-0.1076,-0.109,-0.1086,-0.1098,-0.1117,-0.1135,-0.1134,-0.1159,-0.117,-0.1172,-0.1199,-0.1203,-0.1217,-0.123,-0.1238,-0.1208,-0.1228,-0.121,-0.1185,-0.1182,-0.1178,-0.1174,-0.1164,-0.116,-0.1208,-0.1208,-0.1208,0,-0.1049,-0.1056,-0.1081,-0.1083,-0.109,-0.1121,-0.1117,-0.1128,-0.115,-0.1154,-0.1166,-0.1184,-0.12,-0.12,-0.1192,-0.1198,-0.1198,-0.1208,-0.1176,-0.1173,-0.117,-0.1161,-0.1157,-0.1206,-0.1206,-0.1206,-0.1207,0,-0.1022,-0.1026,-0.1021,-0.104,-0.1047,-0.1045,-0.1071,-0.1075,-0.1091,-0.1108,-0.111,-0.1129,-0.1143,-0.1144,-0.1161,-0.1147,-0.1153,-0.117,-0.1193,-0.1162,-0.1154,-0.115,-0.1203,-0.1203,-0.1204,-0.1205,0,0,-0.0966,-0.0998,-0.0996,-0.1005,-0.1027,-0.1031,-0.1031,-0.1044,-0.1047,-0.106,-0.1061,-0.1072,-0.1087,-0.1097,-0.1115,-0.1112,-0.1087,-0.113,-0.1131,-0.1122,-0.1073,-0.1061,-0.1057,-0.11,-0.11,-0.1099,-0.1072,0,-0.0937,-0.0938,-0.0961,-0.0956,-0.096,-0.0989,-0.0989,-0.1003,-0.1018,-0.1024,-0.1041,-0.1048,-0.1068,-0.1074,-0.1072,-0.1091,-0.1078,-0.1093,-0.1103,-0.1103,-0.1098,-0.1052,-0.104,-0.1013,-0.1069,-0.1068,-0.1068,0,-0.0904,-0.0915,-0.091,-0.0932,-0.0935,-0.0935,-0.0948,-0.0953,-0.097,-0.0981,-0.099,-0.1011,-0.1013,-0.1032,-0.1036,-0.1045,-0.105,-0.106,-0.106,-0.1063,-0.1084,-0.1055,-0.1005,-0.1002,-0.1063,-0.1063,-0.1064,0,-0.0864,-0.0877,-0.0876,-0.0883,-0.0909,-0.0908,-0.0919,-0.0936,-0.0942,-0.0953,-0.0958,-0.0969,-0.0976,-0.0985,-0.1008,-0.102,-0.1009,-0.1031,-0.1019,-0.1019,-0.1017,-0.1017,-0.0968,-0.1018,-0.1018,-0.1018,-0.1018,0,-0.083,-0.0827,-0.0858,-0.0858,-0.0855,-0.088,-0.0876,-0.089,-0.0905,-0.0908,-0.0933,-0.0935,-0.0965,-0.0971,-0.0989,-0.0989,-0.0992,-0.1001,-0.1006,-0.1,-0.0999,-0.1005,-0.1008,-0.1017,-0.1017,-0.1017,-0.1018,0,-0.0786,-0.0807,-0.0808,-0.0832,-0.0838,-0.0834,-0.0855,-0.0856,-0.0872,-0.0875,-0.0877,-0.0903,-0.0911,-0.0934,-0.0948,-0.0961,-0.0956,-0.0965,-0.095,-0.0954,-0.0941,-0.0943,-0.0896,-0.0891,-0.0943,-0.0942,-0.0942,0,-0.0764,-0.0762,-0.0785,-0.0788,-0.0798,-0.0803,-0.0809,-0.0833,-0.0838,-0.0856,-0.0855,-0.0865,-0.0874,-0.0886,-0.0906,-0.0917,-0.0927,-0.0909,-0.0929,-0.0922,-0.0928,-0.0928,-0.0928,-0.0906,-0.0905,-0.0905,-0.0904,0,-0.0723,-0.0733,-0.074,-0.075,-0.0756,-0.0766,-0.0777,-0.0779,-0.0806,-0.0811,-0.0819,-0.0826,-0.084,-0.0849,-0.0863,-0.0875,-0.0894,-0.0897,-0.0896,-0.089,-0.0882,-0.0887,-0.094,-0.0899,-0.09,-0.09,-0.09,-0.09,-0.069,-0.0689,-0.0705,-0.0712,-0.0722,-0.0732,-0.0734,-0.0749,-0.0756,-0.0769,-0.0783,-0.0789,-0.0806,-0.0826,-0.0836,-0.0842,-0.0852,-0.0849,-0.0849,-0.0848,-0.0845,-0.0879,-0.0844,-0.0845,-0.0845,-0.0845,-0.0845,0,-0.065,-0.0662,-0.0668,-0.0682,-0.0687,-0.0703,-0.0716,-0.072,-0.0725,-0.0738,-0.0746,-0.0755,-0.0765,-0.0785,-0.0796,-0.0797,-0.0806,-0.0799,-0.08,-0.0802,-0.0835,-0.0836,-0.0791,-0.0791,-0.0791,-0.0791,-0.0791,-0.0791,-0.0631,-0.063,-0.0642,-0.0647,-0.0659,-0.0664,-0.067,-0.068,-0.069,-0.0699,-0.0706,-0.0719,-0.0735,-0.0747,-0.0756,-0.0762,-0.0765,-0.0756,-0.0764,-0.0795,-0.08,-0.0805,-0.0806,-0.0756,-0.0756,-0.0732,-0.0731,-0.0731]}]]